Weather Roundup
Issued by NWS

Home | Current Version | Previous Version | Graphics & Text | Print | Product List | Glossary Off
Versions: 1 2 3 4 5 6 7 8 9 10 11 12 13 14 15 16 17 18 19 20 21 22 23 24 25 26 27 28 29 30 31 32 33 34 35 36 37 38 39 40 41 42 43 44 45 46 47 48 49 50

000
NZUS93 KARX 231359
HRRWXR

CURRENT HOURLY OBSERVATIONS ACROSS
MUCH OF THE UPPER MISSISSIPPI VALLEY
NATIONAL WEATHER SERVICE LA CROSSE WI
900 AM CDT WED JUL 23 2014


...SOUTHEAST MINNESOTA...


CITY           SKY/WX    TMP DP  RH WIND       PRES   REMARKS
ROCHESTER      SUNNY     70  61  73 NW3       30.27R
ROCHESTER/MAYO FAIR      68  58  70 NW3       30.26R
WINONA         SUNNY     70  61  73 CALM      30.24R
AUSTIN         SUNNY     72  61  68 CALM      30.25S
ALBERT LEA     SUNNY     70  61  73 CALM      30.26R
DODGE CENTER   MOSUNNY   68  63  83 N5        30.26S
PRESTON        SUNNY     67  63  89 N3        30.26R
OWATONNA       SUNNY     68  61  77 N3        30.26S
FARIBAULT      SUNNY     73  57  56 N3        30.26S
$$

...ELSEWHERE IN MINNESOTA...


CITY           SKY/WX    TMP DP  RH WIND       PRES   REMARKS
MINNEAPOLIS    MOSUNNY   72  55  55 NW3       30.26R
INTNL FALLS    NOT AVBL
DULUTH         MOSUNNY   67  56  67 NE5       30.27R
RED WING       SUNNY     72  61  68 W3        30.24R
REDWOOD FALLS  SUNNY     69  57  65 NE5       30.28R
MANKATO        SUNNY     66  55  68 NE8       30.27S
WORTHINGTON    SUNNY     66  57  72 NE8       30.30F
FAIRMONT       MOSUNNY   66  55  68 N7        30.27S
$$

...SOUTHWEST WISCONSIN...


CITY           SKY/WX    TMP DP  RH WIND       PRES   REMARKS
LA CROSSE      SUNNY     72  60  66 N6        30.23R
PRAIRIE DU CHI SUNNY     69  58  68 NE5       30.21R
BOSCOBEL       SUNNY     71  59  65 VRB3      30.21S
LONE ROCK      NOT AVBL
PLATTEVILLE    SUNNY     67  60  76 N12       30.21R
FORT MC COY    SUNNY     67  57  71 N5        30.24F
VIROQUA        FAIR      67  59  76 NE5       30.23S
WIS DELLS      SUNNY     66  56  69 NE5       30.23R
$$

...ELSEWHERE IN WISCONSIN...


CITY           SKY/WX    TMP DP  RH WIND       PRES   REMARKS
MILWAUKEE      MOSUNNY   65  55  70 N15       30.17R
MADISON        MOSUNNY   69  58  67 N9        30.20R
GREEN BAY      SUNNY     67  53  61 N10       30.20F
EAU CLAIRE     SUNNY     70  61  73 VRB3      30.23S
BLACK RVR FLS  FAIR      68  59  72 E5        30.23S
MEDFORD        SUNNY     61  56  84 CALM      30.25R
WAUSAU         SUNNY     66  54  65 E6        30.23R
WIS RAPIDS     SUNNY     68  55  63 VRB6      30.25R
MARSHFIELD     SUNNY     67  56  67 E7        30.24S
RICE LAKE      SUNNY     67  58  72 N3        30.25S
$$

...NORTHEAST IOWA...


CITY           SKY/WX    TMP DP  RH WIND       PRES   REMARKS
WATERLOO       SUNNY     71  60  68 NE12      30.21R
DUBUQUE        SUNNY     67  60  78 NE12      30.20R
DECORAH        SUNNY     68  59  73 VRB6      30.24R
MASON CITY     SUNNY     69  62  78 NE6       30.26R
CHARLES CITY   MOSUNNY   70  61  73 NE6       30.25R
OELWEIN        MOSUNNY   68  61  77 NE12      30.22S
$$

...ELSEWHERE IN IOWA...


CITY           SKY/WX    TMP DP  RH WIND       PRES   REMARKS
DES MOINES     MOSUNNY   74  62  66 N6        30.20R
IOWA CITY      SUNNY     72  63  73 NE13      30.19R
FORT DODGE     SUNNY     68  61  77 N6        30.26R
MARSHALLTOWN   SUNNY     71  63  75 NE10      30.20R
CEDAR RAPIDS   SUNNY     72  61  68 NE10      30.19R
$$

...NORTHERN ILLINOIS...


CITY           SKY/WX    TMP DP  RH WIND       PRES   REMARKS
CHICAGO-OHARE  MOSUNNY   68  54  60 N20       30.14R
DUPAGE         SUNNY     69  56  62 N16       30.14R
CHICAGO-MIDWAY MOSUNNY   69  58  67 NE18G28   30.13R
MOLINE         SUNNY     72  62  71 NE10      30.15R
ROCKFORD       MOSUNNY   69  55  60 NE20G25   30.19R
STERLING       SUNNY     72  61  68 NE10G17   30.17R
PEORIA         SUNNY     73  58  59 NE15      30.12R
$$

NOTE: "FAIR" INDICATES FEW OR NO CLOUDS BELOW 12,000 FEET WITH NO
SIGNIFICANT WEATHER AND/OR OBSTRUCTIONS TO VISIBILITY. WIND
SPEEDS ARE IN MILES-PER-HOUR.



USA.gov is the U.S. government's official web portal to all federal, state and local government web resources and services.